Regional Weather Roundup
Issued by NWS Raleigh/Durham, NC

Home | Current Version | Previous Version | Text Only | Print | Product List | Glossary On
Versions: 1 2 3 4 5 6 7 8 9 10 11 12 13 14 15 16 17 18 19 20 21 22 23 24 25 26 27 28 29 30 31 32 33 34 35 36 37 38 39 40 41 42 43 44 45 46 47 48 49 50
000
ASUS42 KRAH 211110
RWRRAH
NORTH CAROLINA WEATHER ROUNDUP
NATIONAL WEATHER SERVICE RALEIGH NC
600 AM EST TUE FEB 21 2017

NOTE: "FAIR" INDICATES FEW OR NO CLOUDS BELOW 12,000 FEET WITH NO
SIGNIFICANT WEATHER AND/OR OBSTRUCTIONS TO VISIBILITY.

NCZ001-053-055-056-065-067-211200-
WESTERN NORTH CAROLINA

CITY           SKY/WX    TMP DP  RH WIND       PRES   REMARKS
ASHEVILLE      CLOUDY    39  34  82 CALM      30.20S
JEFFERSON      CLOUDY    46  36  68 CALM      30.22S
MORGANTON      CLOUDY    42  38  84 CALM      30.25R
HICKORY        CLOUDY    47  40  76 CALM      30.20S
RUTHERFORDTON  CLOUDY    47  36  64 CALM      30.21R
MOUNT AIRY     MOCLDY    52  40  63 E9G18     30.25R
BOONE          CLOUDY    34  31  88 CALM      30.23S
$$

NCZ021-022-025-041-071-084-088-211200-
CENTRAL NORTH CAROLINA

CITY           SKY/WX    TMP DP  RH WIND       PRES   REMARKS
CHARLOTTE      CLOUDY    54  46  74 E9        30.21R
GREENSBORO     CLOUDY    49  40  71 SE7       30.24R
WINSTON-SALEM  MOCLDY    50  36  58 E6        30.25R
RALEIGH-DURHAM MOCLDY    45  35  68 NE3       30.27S
FORT BRAGG     CLOUDY    47  39  75 CALM      30.25R
FAYETTEVILLE   CLOUDY    45  41  86 NE6       30.25R
BURLINGTON     CLOUDY    48  38  68 E3        30.25S
LAURINBURG     CLOUDY    47  40  76 E7        30.25R
$$

NCZ011-015-027-028-043-044-047-080-103-211200-
NORTHEASTERN NORTH CAROLINA

CITY           SKY/WX    TMP DP  RH WIND       PRES   REMARKS
ROCKY MT-WILSO PTCLDY    40  40 100 N3        30.28R
GREENVILLE     PTCLDY    37  37 100 CALM      30.28R
WASHINGTON     CLOUDY    37  36  94 CALM      30.27S
ELIZABETH CITY PTCLDY    43  41  93 N6        30.29R
MANTEO         PTCLDY    48  41  77 NE9       30.28R
CAPE HATTERAS  PTCLDY    52  47  83 NE6       30.23S
$$

NCZ078-087-090-091-093-098-101-211200-
SOUTHEASTERN NORTH CAROLINA

CITY           SKY/WX    TMP DP  RH WIND       PRES   REMARKS
LUMBERTON      PTCLDY    49  41  74 NE5       30.24R
GOLDSBORO      CLOUDY    43  41  93 CALM      30.25R
KINSTON        CLOUDY    41  38  87 CALM      30.27S
KENANSVILLE    NOT AVBL
NEW BERN       CLOUDY    43  42  97 NE3       30.27R
CHERRY POINT   CLOUDY    46  42  86 N6        30.25S
BEAUFORT       PTCLDY    47  45  93 NE5       30.24R
JACKSONVILLE   CLOUDY    44  42  93 N5        30.25R
WILMINGTON     CLOUDY    44  42  93 NE5       30.24R
$$




USA.gov is the U.S. government's official web portal to all federal, state and local government web resources and services.